Weather in Verkh-Usugli

Russia / Zabaykalsky Krai     52°41′34″N   115°10′58″E
temp.,
°C
wind,
m/s
gust,
m/s
humid.,
%
clouds,
%
prec.,
mm/h
press.,
hPa
HPBL,
m
9 march, tue
tue900:00−14wnw35796 0.0 1024112
03:00−17wnw23823 0.0 102827
06:00−19wnw22790 0.0 103020
09:00−18wsw11783 0.0 103120
12:00−10s226717 0.0 1028268
15:00−5s366439 0.0 1023745
18:00−6s487619 0.0 1020643
21:00−12s129048 0.0 102121
10 march, wed
wed1000:00−12wnw0194100 0.0 101921
03:00−13wsw119590 0.0 102020
06:00−12w238716 0.0 102251
09:00−10w27828 0.0 1023219
12:00−4nw510650 0.0 10231042
15:00−2nw59580 0.0 10231501
18:00−4wnw25720 0.0 1024216
21:00−10w12830 0.0 102721
11 march, thu
thu1100:00−13wsw11870 0.0 102821
03:00−15sw11910 0.0 102820
06:00−15wsw11910 0.0 102820
09:00−12wsw11890 0.0 102831
12:00−4ssw12790 0.0 1025315
15:00−1sse12840 0.0 1023346
18:00−2se11908 0.0 102352
21:00−8sw11914 0.0 102621
12 march, fri
fri1200:00−10sw11930 0.0 102621
03:00−11ssw119516 0.0 102521
06:00−11sw119597 0.0 102521
09:00−9sw129252 0.0 102438
12:00−1s24820 0.0 1020321
15:00+2ssw387930 0.0 1016555
18:00+1ssw31078100 0.0 1013444
21:00−5sw1291100 0.0 101422
13 march, sat
sat1300:00−6wsw228686 0.0 101529
03:00−8wnw228753 0.0 101521
06:00−9w12866 0.0 101621
09:00−8wsw118715 0.0 101535
12:00−2ssw247780 0.0 1010343
15:00+2ssw377583 0.0 1006576
18:00+1s227985 0.0 100436
21:00−4s118992 0.0 100521